CW9774 Weather Reports


time (UTC)temp
F
wind
direction
speed
knots
gust
knots
rain 1hr
in
rain 24hr
in
rain mn
in
humidity
%
barometer
mb
20260509015029 64 346 4.3 8.7 0.00 0.00 0.00 37 1008.1
20260509014542 64 345 3.5 11.3 0.00 0.00 0.00 36 1008.0
20260509014034 65 313 4.3 11.3 0.00 0.00 0.00 35 1007.9
20260509013532 66 332 7.0 11.3 0.00 0.00 0.00 34 1007.9
20260509013043 66 344 6.1 11.3 0.00 0.00 0.00 33 1007.8
20260509012533 67 325 6.1 13.0 0.00 0.00 0.00 34 1007.7
20260509012034 67 321 7.8 13.9 0.00 0.00 0.00 33 1007.7
20260509011556 67 313 7.8 13.9 0.00 0.00 0.00 33 1007.5
20260509011030 68 326 7.8 12.2 0.00 0.00 0.00 34 1007.4
20260509010530 68 352 7.8 13.9 0.00 0.00 0.00 33 1007.4
20260509010042 69 325 8.7 14.8 0.00 0.00 0.00 33 1007.4
20260509005529 69 338 7.8 14.8 0.00 0.00 0.00 35 1007.4
20260509005031 70 345 8.7 15.6 0.00 0.00 0.00 33 1007.3
20260509004604 70 304 9.6 17.4 0.00 0.00 0.00 32 1007.3
20260509004029 70 339 10.4 17.4 0.00 0.00 0.00 31 1007.2
20260509003534 71 355 11.3 17.4 0.00 0.00 0.00 31 1007.2
20260509003044 71 323 11.3 19.1 0.00 0.00 0.00 30 1007.2
20260509002534 71 335 10.4 19.1 0.00 0.00 0.00 30 1007.2
20260509002029 71 360 10.4 19.1 0.00 0.00 0.00 28 1007.1
20260509001539 72 318 13.0 19.1 0.00 0.00 0.00 28 1007.1
20260509001031 72 313 10.4 18.2 0.00 0.00 0.00 28 1007.1
20260509000530 72 339 11.3 20.0 0.00 0.00 0.00 28 1007.0
20260509000040 72 312 13.0 20.0 0.00 0.00 0.00 28 1006.9
20260508235535 72 330 11.3 17.4 0.00 0.00 0.00 29 1007.0
20260508235031 72 313 9.6 16.5 0.00 0.00 0.00 30 1006.9
20260508234539 73 351 10.4 19.1 0.00 0.00 0.00 31 1006.9
20260508234029 73 327 13.0 19.1 0.00 0.00 0.00 30 1006.9
20260508233529 73 317 11.3 19.1 0.00 0.00 0.00 30 1006.9
20260508233048 73 331 9.6 17.4 0.00 0.00 0.00 28 1006.8
20260508232529 73 327 9.6 18.2 0.00 0.00 0.00 28 1006.8
20260508232032 74 321 10.4 18.2 0.00 0.00 0.00 30 1006.9
20260508231546 74 281 11.3 19.1 0.00 0.00 0.00 27 1006.8
20260508231029 74 304 12.2 20.0 0.00 0.00 0.00 28 1006.7
20260508230529 74 325 11.3 20.9 0.00 0.00 0.00 27 1006.7
20260508230044 74 289 13.0 20.9 0.00 0.00 0.00 27 1006.8
20260508225530 74 289 11.3 20.0 0.00 0.00 0.00 28 1006.8
20260508225032 74 285 13.9 20.9 0.00 0.00 0.00 26 1006.8
20260508224544 74 322 10.4 20.9 0.00 0.00 0.00 25 1006.8
20260508224030 74 308 12.2 20.0 0.00 0.00 0.00 28 1006.8
20260508223530 74 296 12.2 20.0 0.00 0.00 0.00 29 1006.7
20260508223046 74 331 13.9 20.0 0.00 0.00 0.00 30 1006.7
20260508222530 73 13 12.2 19.1 0.00 0.00 0.00 29 1006.7
20260508222030 73 307 9.6 19.1 0.00 0.00 0.00 32 1006.7
20260508221541 73 310 11.3 18.2 0.00 0.00 0.00 33 1006.8
20260508221034 74 338 12.2 18.2 0.00 0.00 0.00 32 1006.7
20260508220532 75 310 7.8 16.5 0.00 0.00 0.00 33 1006.8
20260508220043 74 288 7.0 16.5 0.00 0.00 0.00 39 1006.8
20260508215530 74 286 10.4 20.9 0.00 0.00 0.00 36 1006.8
20260508215033 74 277 12.2 20.9 0.00 0.00 0.00 36 1007.0
20260508214543 74 271 9.6 17.4 0.00 0.00 0.00 34 1006.8
20260508214030 73 294 10.4 17.4 0.00 0.00 0.00 35 1006.9
20260508213529 73 308 7.0 13.9 0.00 0.00 0.00 33 1006.8
20260508213041 75 289 9.6 16.5 0.00 0.00 0.00 36 1006.8
20260508212531 75 331 10.4 16.5 0.00 0.00 0.00 34 1006.8
20260508212033 74 352 6.1 16.5 0.00 0.00 0.00 33 1007.0
20260508211539 74 300 10.4 16.5 0.00 0.00 0.00 33 1007.0
20260508211030 73 327 8.7 14.8 0.00 0.00 0.00 32 1007.1
20260508210531 73 312 8.7 14.8 0.00 0.00 0.00 33 1007.2
20260508210040 74 320 9.6 14.8 0.00 0.00 0.00 32 1007.3
20260508205531 74 277 8.7 14.8 0.00 0.00 0.00 34 1007.2
20260508205032 74 299 10.4 17.4 0.00 0.00 0.00 32 1007.2
20260508204543 74 304 10.4 17.4 0.00 0.00 0.00 33 1007.3
20260508204037 73 318 8.7 17.4 0.00 0.00 0.00 32 1007.4
20260508203532 74 279 9.6 17.4 0.00 0.00 0.00 33 1007.5
20260508203038 74 304 10.4 15.6 0.00 0.00 0.00 32 1007.5
20260508202534 74 297 7.0 19.1 0.00 0.00 0.00 35 1007.5
20260508202034 73 246 8.7 20.0 0.00 0.00 0.00 36 1007.5
20260508201544 73 288 12.2 20.0 0.00 0.00 0.00 34 1007.7
20260508201035 73 307 8.7 20.0 0.00 0.00 0.00 31 1007.8
20260508200532 73 274 9.6 20.0 0.00 0.00 0.00 33 1007.8
20260508200042 73 334 11.3 20.0 0.00 0.00 0.00 31 1007.8
20260508195530 72 295 8.7 17.4 0.00 0.00 0.00 37 1007.7
20260508195031 72 342 9.6 15.6 0.00 0.00 0.00 34 1007.8
20260508194542 72 330 11.3 15.6 0.00 0.00 0.00 35 1007.8
20260508194031 72 321 7.8 15.6 0.00 0.00 0.00 37 1007.8
20260508193530 72 315 8.7 20.9 0.00 0.00 0.00 35 1007.9
20260508193051 73 295 11.3 20.9 0.00 0.00 0.00 38 1007.9
20260508192530 73 307 11.3 17.4 0.00 0.00 0.00 37 1007.9
20260508192031 73 342 8.7 17.4 0.00 0.00 0.00 35 1008.0
20260508191542 73 317 8.7 17.4 0.00 0.00 0.00 33 1007.9
20260508191030 73 360 11.3 19.1 0.00 0.00 0.00 35 1008.0
20260508190531 73 321 10.4 19.1 0.00 0.00 0.00 31 1008.0
20260508190043 73 349 10.4 19.1 0.00 0.00 0.00 35 1008.1
20260508185532 73 287 10.4 16.5 0.00 0.00 0.00 39 1008.0
20260508185030 72 286 9.6 18.2 0.00 0.00 0.00 37 1008.0
20260508184550 72 311 12.2 18.2 0.00 0.00 0.00 37 1008.0
20260508184030 72 286 7.8 16.5 0.00 0.00 0.00 39 1007.8
20260508183532 72 296 10.4 16.5 0.00 0.00 0.00 39 1008.1
20260508183040 72 315 9.6 15.6 0.00 0.00 0.00 42 1008.1
20260508182531 72 304 8.7 13.9 0.00 0.00 0.00 40 1008.3
20260508182033 72 320 10.4 19.1 0.00 0.00 0.00 41 1008.3
20260508181551 71 282 10.4 20.0 0.00 0.00 0.00 42 1008.3
20260508181030 71 257 12.2 20.0 0.00 0.00 0.00 42 1008.3
20260508180531 71 269 9.6 15.6 0.00 0.00 0.00 38 1008.3
20260508180041 72 257 7.8 14.8 0.00 0.00 0.00 42 1008.3
20260508175530 72 300 7.0 14.8 0.00 0.00 0.00 45 1008.4
20260508175031 71 315 9.6 14.8 0.00 0.00 0.00 44 1008.4
20260508174537 70 274 8.7 15.6 0.00 0.00 0.00 45 1008.3
20260508174030 71 273 10.4 15.6 0.00 0.00 0.00 41 1008.5
20260508173530 71 282 7.0 14.8 0.00 0.00 0.00 47 1008.4
20260508173036 71 256 7.0 14.8 0.00 0.00 0.00 41 1008.6
20260508172530 71 320 7.8 13.0 0.00 0.00 0.00 44 1008.6
20260508172031 71 347 7.0 14.8 0.00 0.00 0.00 44 1008.7
20260508171545 70 308 9.6 14.8 0.00 0.00 0.00 43 1008.7
20260508171030 70 284 8.7 13.0 0.00 0.00 0.00 48 1008.6
20260508170531 70 265 7.0 15.6 0.00 0.00 0.00 49 1008.7
20260508170043 70 292 8.7 15.6 0.00 0.00 0.00 49 1008.8
20260508165530 70 342 8.7 14.8 0.00 0.00 0.00 46 1008.8
20260508165030 70 296 9.6 13.0 0.00 0.00 0.00 48 1008.9
20260508164542 70 284 8.7 13.0 0.00 0.00 0.00 49 1008.9
20260508164033 70 269 8.7 13.0 0.00 0.00 0.00 48 1008.9
20260508163530 70 234 8.7 13.0 0.00 0.00 0.00 48 1008.9
20260508163045 70 275 7.0 13.0 0.00 0.00 0.00 48 1008.9
20260508162530 69 281 7.0 14.8 0.00 0.00 0.00 47 1008.9
20260508162031 69 246 8.7 14.8 0.00 0.00 0.00 44 1008.9
20260508161539 69 309 7.0 14.8 0.00 0.00 0.00 50 1008.9
20260508161030 69 284 7.0 14.8 0.00 0.00 0.00 50 1008.9
20260508160530 69 275 8.7 14.8 0.00 0.00 0.00 45 1008.9
20260508155530 69 267 7.0 12.2 0.00 0.00 0.00 46 1008.9
20260508155030 69 278 7.0 11.3 0.00 0.00 0.00 48 1008.9
20260508154542 68 250 7.0 11.3 0.00 0.00 0.00 43 1009.0
20260508154031 68 261 6.1 11.3 0.00 0.00 0.00 47 1009.0
20260508153531 67 248 7.8 11.3 0.00 0.00 0.00 40 1009.1
20260508153045 67 241 7.0 13.0 0.00 0.00 0.00 41 1009.2
20260508152530 66 234 7.8 13.9 0.00 0.00 0.00 40 1009.1
20260508152030 65 223 9.6 13.9 0.00 0.00 0.00 42 1009.2
20260508151543 65 242 10.4 13.9 0.00 0.00 0.00 41 1009.3
20260508151033 65 242 10.4 14.8 0.00 0.00 0.00 41 1009.3
20260508150530 64 238 9.6 14.8 0.00 0.00 0.00 44 1009.4
20260508150039 64 244 9.6 14.8 0.00 0.00 0.00 43 1009.5
20260508145530 63 240 9.6 13.9 0.00 0.00 0.00 42 1009.6
20260508145034 63 234 9.6 13.9 0.00 0.00 0.00 42 1009.6
20260508144534 63 247 7.8 13.0 0.00 0.00 0.00 43 1009.6
20260508144030 62 238 10.4 13.0 0.00 0.00 0.00 43 1009.7
20260508143530 62 240 6.1 12.2 0.00 0.00 0.00 50 1009.7
20260508143055 61 244 6.1 11.3 0.00 0.00 0.00 52 1009.8
20260508142529 61 239 7.8 13.9 0.00 0.00 0.00 49 1009.8
20260508142031 60 252 7.8 13.9 0.00 0.00 0.00 50 1009.9
20260508141551 60 219 7.8 13.0 0.00 0.00 0.00 52 1009.9
20260508141030 60 240 7.8 10.4 0.00 0.00 0.00 52 1009.9
20260508140530 59 230 6.1 8.7 0.00 0.00 0.00 55 1010.0
20260508140043 59 214 3.5 7.0 0.00 0.00 0.00 57 1009.8
20260508135533 58 229 2.6 5.2 0.00 0.00 0.00 60 1009.8
20260508135030 57 249 1.7 4.3 0.00 0.00 0.00 59 1009.8
20260508134539 57 216 1.7 4.3 0.00 0.00 0.00 59 1009.8
20260508134030 56 232 2.6 5.2 0.00 0.00 0.00 60 1009.8
20260508133531 56 209 1.7 5.2 0.00 0.00 0.00 62 1009.9
20260508133052 56 222 2.6 5.2 0.00 0.00 0.00 61 1009.9
20260508132531 55 226 2.6 4.3 0.00 0.00 0.00 62 1010.0
20260508132031 55 213 1.7 3.5 0.00 0.00 0.00 63 1009.9
20260508131545 54 229 1.7 3.5 0.00 0.00 0.00 62 1009.8
20260508131031 54 221 1.7 3.5 0.00 0.00 0.00 63 1009.8
20260508130531 53 223 0.0 3.5 0.00 0.00 0.00 62 1009.8
20260508130047 52 0 0.0 0.9 0.00 0.00 0.00 61 1009.7
20260508125532 52 0 0.0 0.9 0.00 0.00 0.00 62 1009.7
20260508125031 51 0 0.0 0.9 0.00 0.00 0.00 68 1009.7
20260508124539 50 0 0.0 0.9 0.00 0.00 0.00 71 1009.7
20260508124031 49 0 0.0 2.6 0.00 0.00 0.00 73 1009.8
20260508123530 49 0 0.0 2.6 0.00 0.00 0.00 73 1009.7
20260508123038 48 219 0.0 3.5 0.00 0.00 0.00 70 1009.7
20260508122532 47 0 0.0 3.5 0.00 0.00 0.00 72 1009.6
20260508122032 47 228 1.7 3.5 0.00 0.00 0.00 72 1009.6
20260508121555 46 228 0.9 3.5 0.00 0.00 0.00 70 1009.6
20260508121030 45 0 0.0 1.7 0.00 0.00 0.00 70 1009.5
20260508120531 45 0 0.0 1.7 0.00 0.00 0.00 72 1009.5
20260508120042 45 0 0.0 0.9 0.00 0.00 0.00 72 1009.6
20260508115531 45 0 0.0 2.6 0.00 0.00 0.00 71 1009.5
20260508115029 46 0 0.0 2.6 0.00 0.00 0.00 71 1009.3
20260508114541 46 0 0.0 1.7 0.00 0.00 0.00 72 1009.3
20260508114030 46 0 0.0 1.7 0.00 0.00 0.00 70 1009.1
20260508113530 46 0 0.0 2.6 0.00 0.00 0.00 70 1009.2
20260508113039 46 0 0.0 3.5 0.00 0.00 0.00 72 1009.2
20260508112529 46 264 0.0 3.5 0.00 0.00 0.00 72 1009.4
20260508112029 46 264 1.7 5.2 0.00 0.00 0.00 73 1009.5
20260508111539 47 286 2.6 5.2 0.00 0.00 0.00 71 1009.5
20260508111030 47 236 0.9 2.6 0.00 0.00 0.00 69 1009.6
20260508110530 47 0 0.0 0.0 0.00 0.00 0.00 68 1009.5
20260508110048 47 0 0.0 0.9 0.00 0.00 0.00 67 1009.5
20260508105530 47 0 0.0 0.9 0.00 0.00 0.00 68 1009.5
20260508105029 48 0 0.0 0.9 0.00 0.00 0.00 68 1009.5
20260508104536 48 0 0.0 0.9 0.00 0.00 0.00 66 1009.5
20260508104030 48 0 0.0 0.9 0.00 0.00 0.00 66 1009.3
20260508103530 48 0 0.0 1.7 0.00 0.00 0.00 64 1009.3
20260508103041 47 0 0.0 1.7 0.00 0.00 0.00 64 1009.3
20260508102530 47 193 0.0 1.7 0.00 0.00 0.00 66 1009.5
20260508102030 46 0 0.0 1.7 0.00 0.00 0.00 65 1009.4
20260508101542 45 0 0.0 0.9 0.00 0.00 0.00 68 1009.3
20260508101032 45 193 0.0 0.0 0.00 0.00 0.00 69 1009.3
20260508100529 45 0 0.0 0.0 0.00 0.00 0.00 69 1009.3
20260508100039 45 0 0.0 0.0 0.00 0.00 0.00 68 1009.3
20260508095533 46 0 0.0 0.9 0.00 0.00 0.00 68 1009.3
20260508095030 46 0 0.0 0.9 0.00 0.00 0.00 67 1009.3
20260508094542 46 0 0.0 0.9 0.00 0.00 0.00 64 1009.5
20260508094029 47 0 0.0 0.9 0.00 0.00 0.00 60 1009.6
20260508093530 47 0 0.0 0.9 0.00 0.00 0.00 59 1009.7
20260508093038 47 0 0.0 0.9 0.00 0.00 0.00 59 1009.8
20260508092530 48 0 0.0 1.7 0.00 0.00 0.00 59 1009.8
20260508092030 48 0 0.0 1.7 0.00 0.00 0.00 60 1009.7
20260508091543 49 0 0.0 0.9 0.00 0.00 0.00 61 1009.7
20260508091030 49 0 0.0 0.9 0.00 0.00 0.00 61 1009.8
20260508090530 50 0 0.0 1.7 0.00 0.00 0.00 64 1009.8
20260508090042 50 0 0.0 2.6 0.00 0.00 0.00 65 1009.7
20260508085531 50 0 0.9 2.6 0.00 0.00 0.00 64 1009.8
20260508085031 50 193 0.9 3.5 0.00 0.00 0.00 64 1009.7
20260508084539 51 193 1.7 3.5 0.00 0.00 0.00 63 1009.7
20260508084033 50 193 0.9 2.6 0.00 0.00 0.00 58 1009.6
20260508083529 50 193 0.0 0.9 0.00 0.00 0.00 65 1009.6
20260508083115 50 0 0.0 1.7 0.00 0.00 0.00 66 1009.5
20260508082531 51 0 0.0 1.7 0.00 0.00 0.00 65 1009.6
20260508082029 51 193 0.0 1.7 0.00 0.00 0.00 61 1009.8
20260508081542 51 0 0.0 1.7 0.00 0.00 0.00 61 1009.8
20260508081031 52 0 0.0 2.6 0.00 0.00 0.00 59 1009.7
20260508080529 52 0 0.9 2.6 0.00 0.00 0.00 56 1009.8
20260508080046 52 0 0.0 4.3 0.00 0.00 0.00 56 1009.6
20260508075532 52 0 1.7 4.3 0.00 0.00 0.00 50 1009.8
20260508075029 52 195 1.7 4.3 0.00 0.00 0.00 50 1010.0
20260508074545 52 175 0.0 4.3 0.00 0.00 0.00 51 1009.9
20260508074030 52 0 0.9 4.3 0.00 0.00 0.00 50 1009.8
20260508073530 52 161 2.6 6.1 0.00 0.00 0.00 52 1009.7
20260508073043 52 198 2.6 6.1 0.00 0.00 0.00 53 1009.7
20260508072529 51 160 1.7 4.3 0.00 0.00 0.00 53 1009.7
20260508072030 51 213 0.9 5.2 0.00 0.00 0.00 60 1009.9
20260508071544 51 213 2.6 5.2 0.00 0.00 0.00 59 1009.9
20260508071029 52 193 3.5 7.8 0.00 0.00 0.00 54 1009.9
20260508070534 52 189 3.5 7.8 0.00 0.00 0.00 57 1009.8
20260508070044 52 194 4.3 7.8 0.00 0.00 0.00 57 1009.9
20260508065530 51 177 4.3 8.7 0.00 0.00 0.00 56 1009.9
20260508065030 51 202 2.6 8.7 0.00 0.00 0.00 61 1010.1
20260508064601 52 200 4.3 8.7 0.00 0.00 0.00 60 1010.3
20260508064031 52 0 1.7 4.3 0.00 0.00 0.00 54 1010.1
20260508063530 52 53 1.7 4.3 0.00 0.00 0.00 62 1010.2
20260508063039 51 43 0.0 5.2 0.00 0.00 0.00 58 1010.4
20260508062533 51 0 1.7 5.2 0.00 0.00 0.00 57 1010.7
20260508062030 51 350 2.6 4.3 0.00 0.00 0.00 62 1011.0
20260508061544 51 0 0.0 0.9 0.00 0.00 0.00 59 1010.8
20260508061034 51 207 0.0 6.1 0.00 0.00 0.00 62 1011.0
20260508060529 51 0 0.0 6.1 0.00 0.00 0.00 63 1011.0
20260508060041 52 207 1.7 6.1 0.00 0.00 0.00 62 1011.0
20260508055529 52 0 0.0 2.6 0.00 0.00 0.00 55 1010.8
20260508055030 52 59 0.9 2.6 0.00 0.00 0.00 55 1010.3
20260508054540 52 0 0.0 2.6 0.00 0.00 0.00 58 1010.2
20260508054031 52 59 0.9 2.6 0.00 0.00 0.00 55 1010.2
20260508053531 52 0 0.0 2.6 0.00 0.00 0.00 57 1010.1
20260508053039 52 0 0.0 2.6 0.00 0.00 0.00 53 1010.3
20260508052531 52 0 0.9 2.6 0.00 0.00 0.00 49 1010.3
20260508052031 52 0 0.0 0.9 0.00 0.00 0.00 51 1010.4
20260508051539 52 0 0.0 0.0 0.00 0.00 0.00 52 1010.4
20260508051031 52 0 0.0 0.9 0.00 0.00 0.00 53 1010.4
20260508050531 52 0 0.0 0.9 0.00 0.00 0.00 51 1010.3
20260508050046 52 0 0.0 1.7 0.00 0.00 0.00 50 1010.3
20260508045533 52 0 0.0 1.7 0.00 0.00 0.00 49 1010.3
20260508045032 52 59 0.0 1.7 0.00 0.00 0.00 46 1010.1
20260508044540 52 0 0.0 0.9 0.00 0.00 0.00 50 1010.3
20260508044033 52 0 0.0 2.6 0.00 0.00 0.00 46 1010.3
20260508043533 52 0 0.0 2.6 0.00 0.00 0.00 50 1010.1
20260508043049 52 59 0.0 3.5 0.00 0.00 0.00 49 1010.1
20260508042531 52 59 0.9 3.5 0.00 0.00 0.00 50 1009.9
20260508042031 51 59 0.9 2.6 0.00 0.00 0.00 50 1010.1
20260508041539 51 59 0.9 2.6 0.00 0.00 0.00 49 1010.2
20260508041031 50 0 0.0 0.9 0.00 0.00 0.00 52 1010.2
20260508040531 49 0 0.0 0.9 0.00 0.00 0.00 53 1010.1
20260508040045 49 0 0.0 0.9 0.00 0.00 0.00 54 1010.2
20260508035531 49 0 0.0 0.9 0.00 0.00 0.00 54 1010.2
20260508035032 48 0 0.0 0.9 0.00 0.00 0.00 54 1010.3
20260508034542 48 0 0.0 1.7 0.00 0.00 0.00 54 1010.2
20260508034031 48 0 0.0 1.7 0.00 0.00 0.00 54 1010.2
20260508033531 48 59 0.0 1.7 0.00 0.00 0.00 54 1010.1
20260508033039 49 0 0.0 0.9 0.00 0.00 0.00 54 1010.1
20260508032531 49 0 0.0 0.9 0.00 0.00 0.00 53 1010.1
20260508032032 50 0 0.0 1.7 0.00 0.00 0.00 53 1010.1
20260508031538 50 0 0.0 2.6 0.00 0.00 0.00 53 1010.0
20260508031031 51 0 0.0 2.6 0.00 0.00 0.00 53 1010.0
20260508030531 51 54 0.0 2.6 0.00 0.00 0.00 48 1009.9
20260508030038 52 0 0.0 0.0 0.00 0.00 0.00 50 1009.8
20260508025533 52 0 0.0 0.0 0.00 0.00 0.00 51 1009.8
20260508025033 53 0 0.0 0.0 0.00 0.00 0.00 49 1009.8
20260508024554 53 0 0.0 0.0 0.00 0.00 0.00 48 1009.8
20260508024031 54 0 0.0 0.0 0.00 0.00 0.00 46 1009.8
20260508023531 54 0 0.0 0.0 0.00 0.00 0.00 44 1009.8
20260508023042 54 0 0.0 0.0 0.00 0.00 0.00 44 1009.7
20260508022530 54 0 0.0 0.0 0.00 0.00 0.00 41 1009.7
20260508022031 54 0 0.0 0.0 0.00 0.00 0.00 39 1009.6
20260508021540 54 0 0.0 0.0 0.00 0.00 0.00 40 1009.6
20260508021032 55 0 0.0 0.0 0.00 0.00 0.00 43 1009.4
20260508020530 55 0 0.0 0.0 0.00 0.00 0.00 44 1009.4
20260508020044 55 0 0.0 0.0 0.00 0.00 0.00 43 1009.4
20260508015531 56 0 0.0 0.0 0.00 0.00 0.00 44 1009.4